Regional Weather Roundup
Issued by NWS

Home | Current Version | Previous Version | Graphics & Text | Print | Product List | Glossary Off
Versions: 1 2 3 4 5 6 7 8 9 10 11 12 13 14 15 16 17 18 19 20 21 22 23 24 25 26 27 28 29 30 31 32 33 34 35 36 37 38 39 40 41 42 43 44 45 46 47 48 49 50

000
ASUS43 KMKX 302221
RWRWI

WISCONSIN REGIONAL WEATHER ROUNDUP
NATIONAL WEATHER SERVICE MILWAUKEE/SULLIVAN WI
400 PM CST FRI JAN 30 2015

NOTE: "FAIR" INDICATES FEW OR NO CLOUDS BELOW 12,000 FEET WITH NO
SIGNIFICANT WEATHER AND/OR OBSTRUCTIONS TO VISIBILITY.

WIZ001-002-006>008-014>016-023>028-302300-
NORTHWEST WISCONSIN

CITY           SKY/WX    TMP DP  RH WIND       PRES   REMARKS
SUPERIOR ARPT  CLOUDY    17   5  57 S8        30.31F WCI   7
ASHLAND        CLOUDY    18   3  52 S6        30.33F WCI  10
HAYWARD        CLOUDY    16   2  54 S9        30.31F WCI   4
SIREN          PTCLDY    19   6  56 S8        30.30F WCI   9
CUMBERLAND     PTCLDY    18   7  62 S5        30.31F WCI  11
RICE LAKE      MOCLDY    19   6  58 SE9       30.35F WCI   7
CHETEK         MOCLDY    18   6  60 SE5       30.35F WCI  11
LADYSMITH      PTCLDY    17   6  62 S5        30.36F WCI   9
EAU CLAIRE     PTCLDY    19   5  54 S7        30.36F WCI  10
MENOMONIE      SUNNY     21   8  58 S9        30.36F WCI  10
NEW RICHMOND   SUNNY     21  11  64 SE8       30.33F WCI  11
OSCEOLA        MOSUNNY   23  13  63 SE10      30.35F WCI  13
$$

WIZ003>005-009-010-017-018-302300-
NORTH CENTRAL WISCONSIN

CITY           SKY/WX    TMP DP  RH WIND       PRES   REMARKS
MANITOWISH WTR CLOUDY    16   4  61 W6        30.28F WCI   7
ARBOR VITAE    CLOUDY    19   6  56 W6        30.28F WCI  11
WOODRUFF       CLOUDY    19   6  56 W6        30.28F WCI  11
RHINELANDER    CLOUDY    17   2  51 SW8       30.30F WCI   7
EAGLE RIVER    MOCLDY    16   2  54 SW5       30.29F WCI   9
LAND O LAKES   CLOUDY    18   3  51 SW6       30.28F WCI  10
PHILLIPS       CLOUDY    16   4  59 SW5       30.30F WCI   9
TOMAHAWK       MOCLDY    18   2  48 CALM      30.31F
MEDFORD        PTCLDY    14   5  66 SW5       30.33S WCI   7
MERRILL        PTCLDY    16   5  60 SW7       30.34F WCI   7
$$

WIZ029-030-035-036-043>047-302300-
CENTRAL WISCONSIN

CITY           SKY/WX    TMP DP  RH WIND       PRES   REMARKS
WAUSAU         MOCLDY    17   5  59 SW6       30.34F WCI   9
MOSINEE        PTCLDY    18   7  62 SW6       30.37F WCI   9
MARSHFIELD     MOCLDY    18   6  59 CALM      30.35F
STEVENS POINT  MOCLDY    18   4  55 W5        30.39S WCI  11
WAUPACA        PTCLDY    24   5  44 SW6       30.40F WCI  17
WAUTOMA        PTCLDY    23   7  50 W7        30.39F WCI  15
WISC RAPIDS    MOCLDY    20   6  55 S6        30.40F WCI  12
CAMP DOUGLAS   MOCLDY    22   7  52 W5        30.39F WCI  16
$$

WIZ011>013-019>022-031-037>040-048>050-302300-
NORTHEAST WISCONSIN

CITY           SKY/WX    TMP DP  RH WIND       PRES   REMARKS
ANTIGO         PTCLDY    16   5  62 SW8       30.32F WCI   5
SHAWANO        CLOUDY    23   7  52 SW5       30.39F WCI  16
OCONTO         CLOUDY    19   8  61 MISG      30.40F
STURGEON BAY   CLOUDY    18   3  53 SW8       30.41F WCI   7
GREEN BAY      MOCLDY    21   9  59 SW5       30.40F WCI  15
MANITOWOC      CLEAR     21  12  68 SE7       30.42F WCI  12
APPLETON       MOCLDY    19   7  58 SW8       30.39F WCI   9
CLINTONVILLE   MOCLDY    21   5  49 W5        30.39F WCI  15
OSHKOSH        MOCLDY    22   8  55 SW6       30.40F WCI  14
$$

WIZ032>034-041-042-053>061-302300-
SOUTHWEST WISCONSIN

CITY           SKY/WX    TMP DP  RH WIND       PRES   REMARKS
LA CROSSE      MOSUNNY   26   8  46 S7        30.40F WCI  18
SPARTA         SUNNY     23   8  51 CALM      30.40F
VIROQUA        MOSUNNY   24   9  51 S8        30.37S WCI  15
BOSCOBEL       SUNNY     27   8  44 SW6       30.42F WCI  20
PRAIRIE DU CHI SUNNY     27   6  41 S7        30.43F WCI  20
PLATTEVILLE    SUNNY     26  12  55 S5        30.41F WCI  20
$$

WIZ056-057-062-063-064-067-068-302300-
SOUTH CENTRAL WISCONSIN

CITY           SKY/WX    TMP DP  RH WIND       PRES   REMARKS
REEDSBURG      CLEAR     22   7  53 SW6       30.40F WCI  15
BARABOO/DELLS  PTCLDY    23   8  54 W7        30.39F WCI  14
LONE ROCK      SUNNY     27  11  51 S9        30.41F WCI  18
MINERAL POINT  SUNNY     27  12  54 SW7       30.39F WCI  19
MADISON        PTCLDY    25   7  46 S6        30.40F WCI  18
MIDDLETON      PTCLDY    28   6  39 SW6       30.40F WCI  22
WATERTOWN      CLEAR     24  10  56 SW7       30.41F WCI  16
MONROE         SUNNY     27  14  59 SW8       30.40F WCI  18
JANESVILLE     CLEAR     27  10  50 W8        30.43F WCI  18
$$

WIZ051-052-058>065-066-070>072-302300-
SOUTHEAST WISCONSIN

CITY           SKY/WX    TMP DP  RH WIND       PRES   REMARKS
MILWAUKEE      PTCLDY    27   6  41 SW10      30.43F WCI  17
WAUKESHA       CLEAR     23   7  50 W9        30.44S WCI  13
MILWAUKEE/TIMM CLEAR     27   3  36 W7        30.44F WCI  19
RACINE         CLEAR     25  12  58 S6        30.45F WCI  18
BURLINGTON     CLEAR     24   9  52 W6        30.42F WCI  17
KENOSHA        CLEAR     27   9  46 W6        30.43F WCI  20
FOND DU LAC    MOCLDY    22   8  55 SW7       30.40F WCI  13
SHEBOYGAN      CLEAR     24   8  50 W6        30.41F WCI  17
WEST BEND      CLEAR     23   7  50 SW8       30.40F WCI  14
JUNEAU         CLEAR     23  11  60 SW8       30.42F WCI  13
$$

LSZ147-162-302300-
LAKE SUPERIOR

STATION/POSITION TIME  TEMP    WIND        PRES    WAVE
                       AIR SEA DIR/SP/G            HT/PER
                 (UTC) (F)     (DEG/KT/KT) (MB)    (FT/S)
DEVILS ISLAND    2200   16     190/  3/  5 1028.4F
PORT WING        2100   17     200/  8/ 10 1027.8
SAXON HARBOR     2140   19     190/  5/ 12 1027.4F
$$

LMZ867-665-643>646-302300-
LAKE MICHIGAN

STATION/POSITION TIME  TEMP    WIND        PRES    WAVE
                       AIR SEA DIR/SP/G            HT/PER
                 (UTC) (F)     (DEG/KT/KT) (MB)    (FT/S)
NORTHPORT PIER   2113   18     260/  4/  6 1030.1F
SISTER BAY       2043   32        CALM       N/A
KEWAUNEE LAKESHO 2200   20     240/  5/  8 1028.9F
SHEBOYGAN LAKESH 2200   22     160/  7/ 10 1031.5F
PORT WASHINGTON  2140   24     180/  6/  9 1031.2F
MILWAUKEE LAKESH 2200   24     140/  5/  6   N/A
KENOSHA   LAKESH 2200   27     150/  6/  8 1030.5F
$$

TC  - TEMPERATURE IN CELSIUS
VSB - VISIBILITY IN STATUTE MILES
WCI - WIND CHILL INDEX
HX  - HEAT INDEX




USA.gov is the U.S. government's official web portal to all federal, state and local government web resources and services.